Location: Gorrevod
(46.4155°N, 4.9409°E)
Time: 11:52:38
(UTC+00:00)

Daily predictions for brighter satellites

Satellite Brightness Start Highest point End
(mag) Time Altitude Azimuth Time Altitude Azimuth Time Altitude Azimuth
Cosmos-2242 4.3 17:06:18 10° NNE 17:09:24 19° ENE 17:12:30 10° ESE
NOAA 11 4.2 17:04:09 10° SSE 17:09:39 79° ENE 17:15:10 10° NNW
AQUARIUS 4.2 17:06:00 10° SSE 17:10:29 90° E 17:15:01 10° NNW
NOSS 3-1 (C) 4.1 17:04:16 10° NW 17:11:43 76° NE 17:20:24 10° SE
COSMO-SKYMED 1 3.4 17:10:09 10° NNE 17:14:02 31° E 17:17:54 10° SSE
BREEZE-M DEB (TANK) 2.4 17:12:36 10° WNW 17:14:53 38° N 17:17:07 10° ENE
Cosmos 1937 Rocket 4.1 17:10:40 10° S 17:15:34 39° ESE 17:20:31 10° NE
Aureole 3 2.5 17:14:18 10° N 17:17:22 72° E 17:20:20 10° SSE
Okean 1-7 Rocket 3.9 17:13:00 10° SSW 17:17:33 78° W 17:22:09 10° N
USA 290 3.4 17:18:45 10° N 17:21:23 23° ENE 17:23:58 10° ESE
NOSS 2-1 (C) 2.8 17:20:04 10° SW 17:23:24 88° SE 17:26:53 10° NE
Cosmos 1833 Rocket 3.0 17:19:52 10° NNW 17:25:13 43° NE 17:30:34 10° SE
H-2A R/B 2.8 17:23:50 10° ESE 17:28:11 29° ENE 17:32:39 10° N
Meteor 1-21 Rocket 4.2 17:23:37 10° S 17:29:09 82° E 17:34:46 10° NNE
NOSS 2-1 (D) 2.9 17:26:01 10° SW 17:29:20 80° NW 17:32:49 10° NE
Cosmos 1939 Rocket 2.8 17:26:13 10° SSE 17:30:16 73° ENE 17:34:18 10° N
Helios 1A Rocket 4.2 17:27:41 10° ESE 17:30:47 21° ENE 17:33:53 10° NNE
H-2A R/B 2.3 17:26:58 10° N 17:31:21 73° WNW 17:35:36 10° SSW
Cosmos 2344 4.4 17:22:27 10° NW 17:31:31 66° NE 17:44:06 10° SE
USA 229 DEB 3.9 17:25:54 10° NW 17:33:12 75° NE 17:40:54 10° SE
USA 229 3.9 17:26:00 10° NW 17:33:18 75° NE 17:41:01 10° SE
Cosmos 1602 Rocket 3.6 17:29:03 10° S 17:33:20 61° E 17:37:41 10° NNE
Cosmos 44 3.7 17:28:33 10° SW 17:33:21 65° NW 17:38:31 10° NNE
CZ-3B R/B 1.9 17:31:54 10° NW 17:34:25 60° NE 17:41:24 10° ESE
Cosmos 2026 Rocket 4.2 17:28:43 10° SSE 17:34:36 50° E 17:40:36 10° NNE
SeaSat 1 4.1 17:30:36 10° N 17:34:55 31° NW 17:39:13 10° WSW
Feng Yun 1-1 Rocket 4.2 17:30:11 10° SSE 17:35:37 68° ENE 17:41:14 10° N
CSL-04 DEB 4.4 17:31:54 10° NNE 17:36:01 67° ESE 17:39:59 10° S
SJ 16-02 2.7 17:32:23 10° SW 17:36:30 39° WNW 17:40:38 10° N
Cosmos 2112 Rocket 4.2 17:32:46 10° NNW 17:38:00 78° WSW 17:43:10 10° SSE
YAOGAN 1 3.2 17:35:49 10° SE 17:39:40 33° ENE 17:43:33 10° N
Cosmos 990 Rocket 4.1 17:34:41 10° SSW 17:39:53 83° WNW 17:45:06 10° NNE
H-2A R/B 4.4 17:37:56 10° SSW 17:41:45 35° W 17:45:43 10° NNW
Cosmos 1844 Rocket 3.9 17:36:25 10° SW 17:41:46 42° NW 17:47:08 10° NNE
Cosmos 1689 Rocket 3.4 17:41:34 18° E 17:41:52 18° E 17:43:57 10° SE
Cosmos 1553 Rocket 4.4 17:36:15 10° N 17:42:14 40° ENE 17:48:06 10° SE
Aureole 3 Rocket 2.7 17:39:54 10° N 17:43:05 49° E 17:47:02 10° SSE
COSMOS 2406 3.2 17:38:55 10° NNW 17:44:42 68° ENE 17:50:25 10° SE
Cosmos 2082 Rocket 2.8 17:39:43 10° NNW 17:44:59 36° NE 17:50:12 10° ESE
Cosmos 1703 3.3 17:43:30 10° SSW 17:47:22 79° W 17:51:16 10° N
Cosmos 1825 Rocket 4.1 17:44:26 10° SSE 17:48:27 36° E 17:52:30 10° NNE
NOSS 3-1 (A) 4.1 17:41:23 10° NW 17:48:53 80° NE 17:57:36 10° SE
IRS-1C Rocket 4.0 17:43:56 10° SSE 17:49:08 66° ENE 17:54:22 10° N
X-37B 1.1 17:46:09 10° W 17:49:17 54° SSW 17:51:36 16° ESE
ISS -2.6 17:49:04 10° WNW 17:52:10 32° N 17:53:50 20° NE
Cosmos 1812 Rocket 3.5 17:47:57 10° N 17:52:21 88° W 17:56:42 10° S
Okean O Rocket 3.3 17:50:59 10° SSW 17:55:07 38° W 17:59:14 10° NNW
ATLAS 5 CENTAUR R/B 4.1 17:55:44 10° NNW 17:57:34 12° N 17:59:31 10° NNE
CZ-4 R/B 1.3 17:55:19 10° SSE 17:59:16 57° ENE 18:03:10 10° N
Iridium 4 Rocket 3.4 17:55:18 10° N 18:00:42 73° E 18:05:35 10° S
ERS-2 2.2 17:58:40 10° NNE 18:02:14 52° E 18:05:47 10° S
SKYMED 2 3.6 17:57:53 10° NNE 18:02:16 84° WNW 18:06:36 10° SSW
CSL-04 Rocket 4.1 17:58:41 10° SE 18:03:44 40° ENE 18:08:52 10° N
Okean-O 2.6 18:02:23 10° SSE 18:06:45 63° ENE 18:11:09 10° N
CZ-4C R/B 4.3 18:03:58 10° NW 18:08:05 18° N 18:11:46 12° NE
S3M 4.2 18:02:59 10° N 18:08:47 43° ENE 18:14:33 10° SE
USA 234 4.2 18:05:52 17° NE 18:10:08 35° N 18:15:57 10° WNW
Cosmos 1428 Rocket 4.5 18:03:53 10° S 18:10:12 88° E 18:16:34 10° N
Cosmos 1340 3.5 18:07:18 10° SSW 18:10:57 50° WNW 18:14:38 10° N
Cosmos 1346 Rocket 2.7 18:07:32 10° S 18:11:24 62° E 18:15:12 11° NNE
Cosmos 2278 Rocket 2.1 18:06:09 10° SSW 18:11:48 74° ESE 18:17:11 12° NNE
Cosmos 1655 Rocket 4.4 18:06:11 10° SSE 18:11:49 38° E 18:17:28 10° NNE
Cosmos 1953 Rocket 3.8 18:10:46 10° SSE 18:14:53 44° E 18:17:58 17° NNE
CZ-2C R/B 3.6 18:09:50 10° S 18:15:18 71° WSW 18:21:04 10° NNW
SWARM A 4.2 18:14:26 10° SSE 18:17:41 54° E 18:18:52 33° NNE
Cosmos 2292 Rocket 3.8 18:15:05 10° SSE 18:19:40 42° E 18:20:41 35° ENE
SAR-Lupe-4 3.4 18:17:50 20° NNE 18:20:12 70° ESE 18:23:45 10° S
Cosmos 44 Rocket 3.8 18:17:25 10° S 18:22:01 41° ESE 18:23:19 34° E
Cosmos 405 4.1 18:19:08 10° NNW 18:22:33 46° W 18:25:54 10° S
ARGOS 3.0 18:23:31 10° SSE 18:28:49 68° ENE 18:34:12 10° N
DMSP B5D1-3 4.4 18:23:53 10° NNE 18:28:58 64° ESE 18:34:02 10° S
Cosmos 1869 3.6 18:27:02 10° N 18:30:11 44° NE 18:30:11 44° NE
PSLV R/B 4.1 18:29:19 10° N 18:33:33 78° WNW 18:37:44 10° SSW
Cosmos 372 Rocket 4.0 18:30:15 10° SSW 18:35:27 83° WNW 18:39:58 14° NNE
SAR-Lupe-1 4.2 18:34:04 22° N 18:36:15 74° WNW 18:39:49 10° SSW
CZ-4B R/B 3.7 18:34:20 10° NNW 18:37:02 23° WNW 18:39:38 10° WSW
Cosmos 468 4.4 18:32:50 10° NNW 18:38:05 67° ENE 18:41:13 25° SE
CZ-2C R/B 2.9 18:33:45 13° NNE 18:38:39 50° E 18:44:05 10° S
Cosmos 494 Rocket 4.1 18:37:00 10° NNW 18:42:02 50° ENE 18:42:29 48° E
Cosmos 2150 Rocket 3.9 18:39:36 10° S 18:44:40 61° ESE 18:45:58 46° NE
MOS 1 Rocket 4.5 18:41:00 10° N 18:44:58 38° WNW 18:48:58 10° SW
Cosmos 1048 Rocket 3.8 18:41:55 10° NNW 18:47:05 77° ENE 18:49:36 31° SSE
Cosmos-2242 4.2 18:43:05 10° NNW 18:47:11 43° W 18:51:16 10° SSW
Cosmos 2297 4.3 18:47:09 10° S 18:51:23 38° SE 18:51:23 38° SE
SL-08 RB Rocket 3.6 18:59:18 48° S 19:00:33 86° WSW 19:05:04 10° NNW
CSL-04 Debris 4.5 18:57:23 10° S 19:02:43 66° WSW 19:08:06 10° NNW
Helios 1A Rocket 4.2 19:01:44 10° S 19:05:40 41° W 19:09:37 10° NNW
H-2A R/B 3.3 19:02:42 10° SSW 19:07:26 40° W 19:12:21 10° NNW
Cosmos 1833 Rocket 4.4 19:04:03 10° NW 19:09:00 32° WSW 19:13:55 10° SSW
Cosmos 1125 Rocket 3.5 19:04:08 10° SSW 19:08:41 65° SSE 19:08:41 65° SSE
Cosmos 1809 Rocket 4.3 19:03:37 10° S 19:09:45 89° W 19:15:57 10° N
Cosmos 2298 Rocket 4.1 19:06:42 10° SSW 19:12:01 75° WNW 19:13:35 46° N
Cosmos 2266 Rocket 3.8 19:07:39 10° S 19:13:55 89° E 19:20:05 10° N
NOSS 2-2 (C) 4.3 19:14:28 10° NW 19:19:53 75° NE 19:20:07 74° ENE
X-37B 3.8 19:23:11 10° WSW 19:23:54 14° WSW 19:23:54 14° WSW
Cosmos 1943 Rocket 4.2 19:22:28 10° S 19:23:18 14° S 19:23:18 14° S
Cosmos 2082 Rocket 3.3 19:23:48 10° NW 19:29:08 41° WSW 19:33:42 14° S
ISS -0.8 19:26:07 10° WNW 19:26:49 15° NW 19:26:49 15° NW
ATLAS 5 CENTAUR R/B 4.4 19:41:42 10° NNW 19:42:29 12° N 19:42:29 12° N
Cosmos 2315 Rocket 4.1 19:40:20 10° NNW 19:46:32 70° W 19:46:34 70° W
ATLAS 2AS CENTAUR R/B 4.2 19:42:47 10° NW 19:48:21 26° NNE 19:48:21 26° NNE
USA 234 3.9 19:53:13 44° N 19:53:13 44° N 19:58:30 10° NW
Cosmos 2278 Rocket 4.2 19:52:02 10° W 19:56:29 23° NW 19:59:05 17° N
CZ-4C R/B 4.1 19:53:02 10° NNW 19:56:58 26° N 19:56:58 26° N
